Harrison, AR

11:12 PM CDT on June 22, 2017 (GMT -0500)
Boone County

Weather History for KHRO - December, 2001

Change the Weather History Date:

Monday, December 31, 2001

  Actual Average Record
Temperature  
Mean Temperature 22 °F 36 °F  
Max Temperature 30 °F 46 °F 79 °F (1951)
Min Temperature 14 °F 26 °F -2 °F (1976)
Degree Days  
Heating Degree Days 43 29  
Month to date heating degree days 835  
Since 1 July heating degree days 1599  
Cooling Degree Days 0 0  
Month to date cooling degree days 0  
Year to date cooling degree days 1416  
Moisture  
Dew Point 10 °F    
Average Humidity 64    
Maximum Humidity 84    
Minimum Humidity 40    
Precipitation  
Precipitation 0.00 in 0.09 in 2.60 in (1978)
Month to date precipitation 3.20  
Year to date precipitation 44.14  
Snow  
Snow 0.00 in 0.10 in 1.60 in (1973)
Month to date snowfall 1.3  
Since 1 July snowfall 1.8  
Snow Depth -    
Sea Level Pressure  
Sea Level Pressure 30.33 in    
Wind  
Wind Speed 5 mph (WNW)    
Max Wind Speed 10 mph    
Max Gust Speed 18 mph    
Visibility 10 miles    
Events      
T = Trace of Precipitation, MM = Missing Value Source: NWS Daily Summary

Daily Weather History Graph

Daily Weather History Graph

Search for Another Location

Airport or City:

Trip Planner

Search our weather history database for the weather conditions in past years. The results will help you decide how hot, cold, wet, or windy it might be!

Date:

Astronomy

Dec. 31, 2001 Rise Set
Actual Time 7:23 AM CST 5:07 PM CST
Civil Twilight 6:55 AM CST 5:36 PM CST
Nautical Twilight 6:23 AM CST 6:08 PM CST
Astronomical Twilight 5:51 AM CST 6:39 PM CST
Moon 6:37 PM CST (12/31) 8:37 AM CST (12/31)
Length of Visible Light 10h 41m
Length of Day
9h 44m
Full, 98% of the Moon is Illuminated
Dec 31
Full
Jan 5
Last Quarter
Jan 13
New
Jan 21
First Quarter
Jan 28
Full

Hourly Weather History & Observations

Time (CST) Temp. Windchill Dew Point Humidity Pressure Visibility Wind Dir Wind Speed Gust Speed Precip Events Conditions
12:53 AM 16.0 °F 10.4 °F 10.9 °F 81% 30.37 in 10.0 mi WNW 3.5 mph - N/A   Clear
1:53 AM 15.1 °F 7.7 °F 10.0 °F 80% 30.39 in 10.0 mi West 4.6 mph - N/A   Clear
2:53 AM 16.0 °F 8.8 °F 10.9 °F 81% 30.38 in 10.0 mi WNW 4.6 mph - N/A   Clear
3:53 AM 15.1 °F 7.7 °F 10.0 °F 80% 30.38 in 10.0 mi WNW 4.6 mph - N/A   Clear
4:53 AM 16.0 °F 6.3 °F 10.9 °F 81% 30.36 in 10.0 mi WNW 6.9 mph - N/A   Clear
5:53 AM 15.1 °F 7.7 °F 9.0 °F 77% 30.35 in 10.0 mi WNW 4.6 mph - N/A   Clear
6:53 AM 14.0 °F 6.5 °F 10.0 °F 84% 30.36 in 10.0 mi WNW 4.6 mph - N/A   Clear
7:53 AM 14.0 °F 6.5 °F 9.0 °F 80% 30.38 in 10.0 mi WNW 4.6 mph - N/A   Partly Cloudy
8:53 AM 18.0 °F 9.8 °F 12.0 °F 78% 30.38 in 10.0 mi WNW 5.8 mph - N/A   Clear
9:53 AM 21.9 °F 13.4 °F 12.9 °F 68% 30.38 in 10.0 mi West 6.9 mph - N/A   Clear
10:53 AM 25.0 °F 15.5 °F 10.9 °F 55% 30.38 in 10.0 mi NW 9.2 mph - N/A   Clear
11:53 AM 26.1 °F 16.8 °F 10.9 °F 53% 30.34 in 10.0 mi NNW 9.2 mph - N/A   Clear
12:53 PM 28.0 °F 18.6 °F 10.9 °F 49% 30.31 in 10.0 mi WNW 10.4 mph 18.4 mph N/A   Clear
1:53 PM 28.9 °F 20.4 °F 10.0 °F 45% 30.28 in 10.0 mi WNW 9.2 mph - N/A   Clear
2:53 PM 30.0 °F 22.4 °F 10.9 °F 45% 30.27 in 10.0 mi WNW 8.1 mph - N/A   Clear
3:53 PM 30.9 °F 22.8 °F 9.0 °F 40% 30.28 in 10.0 mi NW 9.2 mph - N/A   Clear
4:53 PM 28.0 °F 21.7 °F 8.1 °F 43% 30.29 in 10.0 mi NW 5.8 mph - N/A   Clear
5:53 PM 27.0 °F 21.6 °F 8.1 °F 45% 30.30 in 10.0 mi WNW 4.6 mph - N/A   Clear
6:53 PM 25.0 °F 20.7 °F 10.0 °F 53% 30.30 in 10.0 mi WNW 3.5 mph - N/A   Clear
7:53 PM 23.0 °F 17.0 °F 10.0 °F 58% 30.31 in 10.0 mi NW 4.6 mph - N/A   Clear
8:53 PM 21.9 °F 15.7 °F 10.9 °F 63% 30.31 in 10.0 mi NW 4.6 mph - N/A   Clear
9:53 PM 19.9 °F 14.9 °F 10.9 °F 68% 30.31 in 10.0 mi NW 3.5 mph - N/A   Clear
10:53 PM 19.9 °F - 10.9 °F 68% 30.30 in 10.0 mi Calm Calm - N/A   Scattered Clouds
11:53 PM 19.9 °F 13.4 °F 10.0 °F 65% 30.32 in 10.0 mi WNW 4.6 mph - N/A   Clear